<?xml version='1.0' encoding='UTF-8'?>
<gpx xmlns="http://www.topografix.com/GPX/1/1" creator="www.balnam.be" version="1.1" xmlns:xsi="http://www.w3.org/2001/XMLSchema-instance" xsi:schemaLocation="http://www.topografix.com/GPX/1/1 http://www.topografix.com/GPX/1/1/gpx.xsd">
<trk>
<name>nlbbv1</name>
<cmt>v</cmt>
<desc>Bovesse Chemin n°1 Chemin de Namur</desc>
<link href="https://chemins.be/bovesse/chemin/1"/><trkseg>
<trkpt lat="50.509135" lon="4.784742"><time>2026-05-07T19:02:39Z</time></trkpt>
<trkpt lat="50.510489" lon="4.783302"><time>2026-05-07T19:12:39Z</time></trkpt>
<trkpt lat="50.511723" lon="4.782467"><time>2026-05-07T19:22:39Z</time></trkpt>
<trkpt lat="50.512411" lon="4.781461"><time>2026-05-07T19:32:39Z</time></trkpt>
</trkseg>
</trk>
<trk>
<name>nlbbv10</name>
<cmt>v</cmt>
<desc>Bovesse Chemin n°10 Chemin des Isnes / Rue des Isnes / Chemin n°10 de Bovesse / Rue du Moulin</desc>
<link href="https://chemins.be/bovesse/chemin/10"/><trkseg>
<trkpt lat="50.513568" lon="4.758471"><time>2026-05-07T19:02:39Z</time></trkpt>
<trkpt lat="50.514190" lon="4.760817"><time>2026-05-07T19:12:39Z</time></trkpt>
<trkpt lat="50.514826" lon="4.764206"><time>2026-05-07T19:22:39Z</time></trkpt>
<trkpt lat="50.514992" lon="4.768028"><time>2026-05-07T19:32:39Z</time></trkpt>
<trkpt lat="50.515380" lon="4.770330"><time>2026-05-07T19:42:39Z</time></trkpt>
</trkseg></trk>
<trk>
<name>nlbbv10</name>
<cmt>r</cmt>
<desc>Bovesse Chemin n°10 Chemin des Isnes / Rue des Isnes / Chemin n°10 de Bovesse / Rue du Moulin</desc>
<link href="https://chemins.be/bovesse/chemin/10"/><trkseg>
<trkpt lat="50.515380" lon="4.770330"><time>2026-05-07T19:42:39Z</time></trkpt>
<trkpt lat="50.516487" lon="4.775246"><time>2026-05-07T19:52:39Z</time></trkpt>
<trkpt lat="50.517349" lon="4.778074"><time>2026-05-07T20:02:39Z</time></trkpt>
<trkpt lat="50.519156" lon="4.780684"><time>2026-05-07T20:12:39Z</time></trkpt>
</trkseg>
</trk>
<trk>
<name>nlbbv11</name>
<cmt>s</cmt>
<desc>Bovesse Chemin n°11 </desc>
<link href="https://chemins.be/bovesse/chemin/11"/><trkseg>
<trkpt lat="50.510299" lon="4.778633"><time>2026-05-07T19:02:39Z</time></trkpt>
<trkpt lat="50.509622" lon="4.781842"><time>2026-05-07T19:12:39Z</time></trkpt>
<trkpt lat="50.508805" lon="4.783907"><time>2026-05-07T19:22:39Z</time></trkpt>
</trkseg>
</trk>
<trk>
<name>nlbbv12</name>
<cmt>r</cmt>
<desc>Bovesse Chemin n°12 Chemin de la Distillerie / Rue de la Distillerie / Rue du Vieux Château / ?</desc>
<link href="https://chemins.be/bovesse/chemin/12"/><trkseg>
<trkpt lat="50.517704" lon="4.789344"><time>2026-05-07T19:02:39Z</time></trkpt>
<trkpt lat="50.518055" lon="4.789361"><time>2026-05-07T19:12:39Z</time></trkpt>
<trkpt lat="50.518730" lon="4.786744"><time>2026-05-07T19:22:39Z</time></trkpt>
<trkpt lat="50.519183" lon="4.785606"><time>2026-05-07T19:32:39Z</time></trkpt>
<trkpt lat="50.519860" lon="4.784780"><time>2026-05-07T19:42:39Z</time></trkpt>
<trkpt lat="50.519870" lon="4.784653"><time>2026-05-07T19:52:39Z</time></trkpt>
<trkpt lat="50.520348" lon="4.784291"><time>2026-05-07T20:02:39Z</time></trkpt>
</trkseg></trk>
<trk>
<name>nlbbv12</name>
<cmt>s</cmt>
<desc>Bovesse Chemin n°12 Chemin de la Distillerie / Rue de la Distillerie / Rue du Vieux Château / ?</desc>
<link href="https://chemins.be/bovesse/chemin/12"/><trkseg>
<trkpt lat="50.520348" lon="4.784291"><time>2026-05-07T20:02:39Z</time></trkpt>
<trkpt lat="50.522347" lon="4.783251"><time>2026-05-07T20:12:39Z</time></trkpt>
<trkpt lat="50.523425" lon="4.783514"><time>2026-05-07T20:22:39Z</time></trkpt>
</trkseg>
</trk>
<trk>
<name>nlbbv13</name>
<cmt>r</cmt>
<desc>Bovesse Chemin n°13 Rue de la Distillerie</desc>
<link href="https://chemins.be/bovesse/chemin/13"/><trkseg>
<trkpt lat="50.519843" lon="4.784611"><time>2026-05-07T19:02:39Z</time></trkpt>
<trkpt lat="50.519694" lon="4.783453"><time>2026-05-07T19:12:39Z</time></trkpt>
<trkpt lat="50.519708" lon="4.782226"><time>2026-05-07T19:22:39Z</time></trkpt>
<trkpt lat="50.519358" lon="4.781998"><time>2026-05-07T19:32:39Z</time></trkpt>
</trkseg>
</trk>
<trk>
<name>nlbbv14</name>
<cmt>r</cmt>
<desc>Bovesse Chemin n°14 Chemin de Marette / Rue de Marette / Rue de la Houlette / Rue des Fermes</desc>
<link href="https://chemins.be/bovesse/chemin/14"/><trkseg>
<trkpt lat="50.508482" lon="4.765718"><time>2026-05-07T19:02:39Z</time></trkpt>
<trkpt lat="50.509750" lon="4.768464"><time>2026-05-07T19:12:39Z</time></trkpt>
<trkpt lat="50.510584" lon="4.768851"><time>2026-05-07T19:22:39Z</time></trkpt>
<trkpt lat="50.512268" lon="4.773293"><time>2026-05-07T19:32:39Z</time></trkpt>
<trkpt lat="50.512755" lon="4.775440"><time>2026-05-07T19:42:39Z</time></trkpt>
<trkpt lat="50.513147" lon="4.778940"><time>2026-05-07T19:52:39Z</time></trkpt>
<trkpt lat="50.513644" lon="4.780946"><time>2026-05-07T20:02:39Z</time></trkpt>
<trkpt lat="50.514184" lon="4.783108"><time>2026-05-07T20:12:39Z</time></trkpt>
</trkseg>
</trk>
<trk>
<name>nlbbv15</name>
<cmt>r</cmt>
<desc>Bovesse Chemin n°15 Chemin du Chemin de Fer / Rue du Chemin de Fer / ? / Rue des Isnes</desc>
<link href="https://chemins.be/bovesse/chemin/15"/><trkseg>
<trkpt lat="50.513220" lon="4.778701"><time>2026-05-07T19:02:39Z</time></trkpt>
<trkpt lat="50.513851" lon="4.778199"><time>2026-05-07T19:12:39Z</time></trkpt>
<trkpt lat="50.514346" lon="4.778175"><time>2026-05-07T19:22:39Z</time></trkpt>
</trkseg></trk>
<trk>
<name>nlbbv15</name>
<cmt>v</cmt>
<desc>Bovesse Chemin n°15 Chemin du Chemin de Fer / Rue du Chemin de Fer / ? / Rue des Isnes</desc>
<link href="https://chemins.be/bovesse/chemin/15"/><trkseg>
<trkpt lat="50.514346" lon="4.778175"><time>2026-05-07T19:22:39Z</time></trkpt>
<trkpt lat="50.514941" lon="4.777546"><time>2026-05-07T19:32:39Z</time></trkpt>
</trkseg></trk>
<trk>
<name>nlbbv15</name>
<cmt>s</cmt>
<desc>Bovesse Chemin n°15 Chemin du Chemin de Fer / Rue du Chemin de Fer / ? / Rue des Isnes</desc>
<link href="https://chemins.be/bovesse/chemin/15"/><trkseg>
<trkpt lat="50.514941" lon="4.777546"><time>2026-05-07T19:32:39Z</time></trkpt>
<trkpt lat="50.516363" lon="4.777248"><time>2026-05-07T19:42:39Z</time></trkpt>
</trkseg></trk>
<trk>
<name>nlbbv15</name>
<cmt>r</cmt>
<desc>Bovesse Chemin n°15 Chemin du Chemin de Fer / Rue du Chemin de Fer / ? / Rue des Isnes</desc>
<link href="https://chemins.be/bovesse/chemin/15"/><trkseg>
<trkpt lat="50.516363" lon="4.777248"><time>2026-05-07T19:42:39Z</time></trkpt>
<trkpt lat="50.516797" lon="4.776560"><time>2026-05-07T19:52:39Z</time></trkpt>
</trkseg>
</trk>
<trk>
<name>nlbbv16</name>
<cmt>r</cmt>
<desc>Bovesse Chemin n°16 Rue du Ruisseau</desc>
<link href="https://chemins.be/bovesse/chemin/16"/><trkseg>
<trkpt lat="50.517590" lon="4.778485"><time>2026-05-07T19:02:39Z</time></trkpt>
<trkpt lat="50.518185" lon="4.780591"><time>2026-05-07T19:12:39Z</time></trkpt>
<trkpt lat="50.518246" lon="4.781184"><time>2026-05-07T19:22:39Z</time></trkpt>
<trkpt lat="50.518314" lon="4.782299"><time>2026-05-07T19:32:39Z</time></trkpt>
</trkseg>
</trk>
<trk>
<name>nlbbv17</name>
<cmt>s</cmt>
<desc>Bovesse Sentier n°17 Rue du Chemin de Fer</desc>
<link href="https://chemins.be/bovesse/sentier/17"/><trkseg>
<trkpt lat="50.509523" lon="4.784266"><time>2026-05-07T19:02:39Z</time></trkpt>
<trkpt lat="50.511224" lon="4.781149"><time>2026-05-07T19:12:39Z</time></trkpt>
</trkseg></trk>
<trk>
<name>nlbbv17</name>
<cmt>v</cmt>
<desc>Bovesse Sentier n°17 Rue du Chemin de Fer</desc>
<link href="https://chemins.be/bovesse/sentier/17"/><trkseg>
<trkpt lat="50.511224" lon="4.781149"><time>2026-05-07T19:12:39Z</time></trkpt>
<trkpt lat="50.511615" lon="4.780595"><time>2026-05-07T19:22:39Z</time></trkpt>
</trkseg></trk>
<trk>
<name>nlbbv17</name>
<cmt>s</cmt>
<desc>Bovesse Sentier n°17 Rue du Chemin de Fer</desc>
<link href="https://chemins.be/bovesse/sentier/17"/><trkseg>
<trkpt lat="50.511615" lon="4.780595"><time>2026-05-07T19:22:39Z</time></trkpt>
<trkpt lat="50.513031" lon="4.778826"><time>2026-05-07T19:32:39Z</time></trkpt>
</trkseg></trk>
<trk>
<name>nlbbv17</name>
<cmt>r</cmt>
<desc>Bovesse Sentier n°17 Rue du Chemin de Fer</desc>
<link href="https://chemins.be/bovesse/sentier/17"/><trkseg>
<trkpt lat="50.513031" lon="4.778826"><time>2026-05-07T19:32:39Z</time></trkpt>
<trkpt lat="50.513166" lon="4.778785"><time>2026-05-07T19:42:39Z</time></trkpt>
<trkpt lat="50.513905" lon="4.778213"><time>2026-05-07T19:52:39Z</time></trkpt>
<trkpt lat="50.514355" lon="4.778189"><time>2026-05-07T20:02:39Z</time></trkpt>
</trkseg></trk>
<trk>
<name>nlbbv17</name>
<cmt>v</cmt>
<desc>Bovesse Sentier n°17 Rue du Chemin de Fer</desc>
<link href="https://chemins.be/bovesse/sentier/17"/><trkseg>
<trkpt lat="50.514355" lon="4.778189"><time>2026-05-07T20:02:39Z</time></trkpt>
<trkpt lat="50.514950" lon="4.777630"><time>2026-05-07T20:12:39Z</time></trkpt>
</trkseg>
</trk>
<trk>
<name>nlbbv18</name>
<cmt>r</cmt>
<desc>Bovesse Sentier n°18 Rue de la Dime / Rue de la Dîme</desc>
<link href="https://chemins.be/bovesse/sentier/18"/><trkseg>
<trkpt lat="50.514147" lon="4.786168"><time>2026-05-07T19:02:39Z</time></trkpt>
<trkpt lat="50.512182" lon="4.790000"><time>2026-05-07T19:12:39Z</time></trkpt>
<trkpt lat="50.511790" lon="4.791561"><time>2026-05-07T19:22:39Z</time></trkpt>
</trkseg>
</trk>
<trk>
<name>nlbbv19</name>
<cmt>s</cmt>
<desc>Bovesse Sentier n°19 </desc>
<link href="https://chemins.be/bovesse/sentier/19"/><trkseg>
<trkpt lat="50.513240" lon="4.788176"><time>2026-05-07T19:02:39Z</time></trkpt>
<trkpt lat="50.513544" lon="4.791196"><time>2026-05-07T19:12:39Z</time></trkpt>
<trkpt lat="50.513577" lon="4.791930"><time>2026-05-07T19:22:39Z</time></trkpt>
</trkseg>
</trk>
<trk>
<name>nlbbv2</name>
<cmt>r</cmt>
<desc>Bovesse Chemin n°2 Chemin de Bovesse à Saint-Denis</desc>
<link href="https://chemins.be/bovesse/chemin/2"/><trkseg>
<trkpt lat="50.526155" lon="4.774258"><time>2026-05-07T19:02:39Z</time></trkpt>
<trkpt lat="50.522030" lon="4.771233"><time>2026-05-07T19:12:39Z</time></trkpt>
<trkpt lat="50.517250" lon="4.777946"><time>2026-05-07T19:22:39Z</time></trkpt>
<trkpt lat="50.516240" lon="4.778967"><time>2026-05-07T19:32:39Z</time></trkpt>
<trkpt lat="50.515311" lon="4.779678"><time>2026-05-07T19:42:39Z</time></trkpt>
<trkpt lat="50.513743" lon="4.780863"><time>2026-05-07T19:52:39Z</time></trkpt>
<trkpt lat="50.512805" lon="4.781658"><time>2026-05-07T20:02:39Z</time></trkpt>
</trkseg>
</trk>
<trk>
<name>nlbbv20</name>
<cmt>b</cmt>
<desc>Bovesse Sentier n°20 </desc>
<link href="https://chemins.be/bovesse/sentier/20"/><trkseg>
<trkpt lat="50.517241" lon="4.783065"><time>2026-05-07T19:02:39Z</time></trkpt>
<trkpt lat="50.517073" lon="4.782485"><time>2026-05-07T19:12:39Z</time></trkpt>
<trkpt lat="50.516902" lon="4.782498"><time>2026-05-07T19:22:39Z</time></trkpt>
<trkpt lat="50.516766" lon="4.781978"><time>2026-05-07T19:32:39Z</time></trkpt>
</trkseg></trk>
<trk>
<name>nlbbv20</name>
<cmt>s</cmt>
<desc>Bovesse Sentier n°20 </desc>
<link href="https://chemins.be/bovesse/sentier/20"/><trkseg>
<trkpt lat="50.516766" lon="4.781978"><time>2026-05-07T19:32:39Z</time></trkpt>
<trkpt lat="50.516339" lon="4.781605"><time>2026-05-07T19:42:39Z</time></trkpt>
<trkpt lat="50.516168" lon="4.781448"><time>2026-05-07T19:52:39Z</time></trkpt>
<trkpt lat="50.514947" lon="4.781028"><time>2026-05-07T20:02:39Z</time></trkpt>
<trkpt lat="50.514613" lon="4.781307"><time>2026-05-07T20:12:39Z</time></trkpt>
<trkpt lat="50.513777" lon="4.781357"><time>2026-05-07T20:22:39Z</time></trkpt>
</trkseg>
</trk>
<trk>
<name>nlbbv21</name>
<cmt>s</cmt>
<desc>Bovesse Sentier n°21 </desc>
<link href="https://chemins.be/bovesse/sentier/21"/><trkseg>
<trkpt lat="50.516796" lon="4.781933"><time>2026-05-07T19:02:39Z</time></trkpt>
<trkpt lat="50.517390" lon="4.781656"><time>2026-05-07T19:12:39Z</time></trkpt>
<trkpt lat="50.517660" lon="4.781503"><time>2026-05-07T19:22:39Z</time></trkpt>
<trkpt lat="50.517804" lon="4.781476"><time>2026-05-07T19:32:39Z</time></trkpt>
<trkpt lat="50.518209" lon="4.781409"><time>2026-05-07T19:42:39Z</time></trkpt>
<trkpt lat="50.518211" lon="4.780845"><time>2026-05-07T19:52:39Z</time></trkpt>
<trkpt lat="50.518886" lon="4.780611"><time>2026-05-07T20:02:39Z</time></trkpt>
</trkseg>
</trk>
<trk>
<name>nlbbv22</name>
<cmt>s</cmt>
<desc>Bovesse Sentier n°22 </desc>
<link href="https://chemins.be/bovesse/sentier/22"/><trkseg>
<trkpt lat="50.516751" lon="4.781904"><time>2026-05-07T19:02:39Z</time></trkpt>
<trkpt lat="50.517000" lon="4.780116"><time>2026-05-07T19:12:39Z</time></trkpt>
<trkpt lat="50.516700" lon="4.778647"><time>2026-05-07T19:22:39Z</time></trkpt>
</trkseg></trk>
<trk>
<name>nlbbv22</name>
<cmt>q</cmt>
<desc>Bovesse Sentier n°22 </desc>
<link href="https://chemins.be/bovesse/sentier/22"/><trkseg>
<trkpt lat="50.516700" lon="4.778647"><time>2026-05-07T19:22:39Z</time></trkpt>
<trkpt lat="50.516312" lon="4.778939"><time>2026-05-07T19:32:39Z</time></trkpt>
<trkpt lat="50.516424" lon="4.777685"><time>2026-05-07T19:42:39Z</time></trkpt>
<trkpt lat="50.516318" lon="4.777247"><time>2026-05-07T19:52:39Z</time></trkpt>
</trkseg>
</trk>
<trk>
<name>nlbbv23</name>
<cmt>s</cmt>
<desc>Bovesse Sentier n°23 Rue des Fermes</desc>
<link href="https://chemins.be/bovesse/sentier/23"/><trkseg>
<trkpt lat="50.512970" lon="4.783422"><time>2026-05-07T19:02:39Z</time></trkpt>
<trkpt lat="50.514184" lon="4.783108"><time>2026-05-07T19:12:39Z</time></trkpt>
</trkseg></trk>
<trk>
<name>nlbbv23</name>
<cmt>v</cmt>
<desc>Bovesse Sentier n°23 Rue des Fermes</desc>
<link href="https://chemins.be/bovesse/sentier/23"/><trkseg>
<trkpt lat="50.514184" lon="4.783108"><time>2026-05-07T19:12:39Z</time></trkpt>
<trkpt lat="50.514491" lon="4.782829"><time>2026-05-07T19:22:39Z</time></trkpt>
</trkseg></trk>
<trk>
<name>nlbbv23</name>
<cmt>d</cmt>
<desc>Bovesse Sentier n°23 Rue des Fermes</desc>
<link href="https://chemins.be/bovesse/sentier/23"/><trkseg>
<trkpt lat="50.514491" lon="4.782829"><time>2026-05-07T19:22:39Z</time></trkpt>
<trkpt lat="50.515582" lon="4.781936"><time>2026-05-07T19:32:39Z</time></trkpt>
<trkpt lat="50.515813" lon="4.782756"><time>2026-05-07T19:42:39Z</time></trkpt>
</trkseg></trk>
<trk>
<name>nlbbv23</name>
<cmt>s</cmt>
<desc>Bovesse Sentier n°23 Rue des Fermes</desc>
<link href="https://chemins.be/bovesse/sentier/23"/><trkseg>
<trkpt lat="50.515813" lon="4.782756"><time>2026-05-07T19:42:39Z</time></trkpt>
<trkpt lat="50.516390" lon="4.782352"><time>2026-05-07T19:52:39Z</time></trkpt>
<trkpt lat="50.516724" lon="4.782017"><time>2026-05-07T20:02:39Z</time></trkpt>
</trkseg>
</trk>
<trk>
<name>nlbbv24</name>
<cmt>s</cmt>
<desc>Bovesse Sentier n°24 Rue des Fermes</desc>
<link href="https://chemins.be/bovesse/sentier/24"/><trkseg>
<trkpt lat="50.513255" lon="4.784101"><time>2026-05-07T19:02:39Z</time></trkpt>
<trkpt lat="50.514193" lon="4.783137"><time>2026-05-07T19:12:39Z</time></trkpt>
</trkseg>
</trk>
<trk>
<name>nlbbv25</name>
<cmt>d</cmt>
<desc>Bovesse Sentier n°25 </desc>
<link href="https://chemins.be/bovesse/sentier/25"/><trkseg>
<trkpt lat="50.516080" lon="4.783647"><time>2026-05-07T19:02:39Z</time></trkpt>
<trkpt lat="50.515822" lon="4.782770"><time>2026-05-07T19:12:39Z</time></trkpt>
</trkseg>
</trk>
<trk>
<name>nlbbv26</name>
<cmt>r</cmt>
<desc>Bovesse Sentier n°26 Rue du Ruisseau</desc>
<link href="https://chemins.be/bovesse/sentier/26"/><trkseg>
<trkpt lat="50.517259" lon="4.783234"><time>2026-05-07T19:02:39Z</time></trkpt>
<trkpt lat="50.517337" lon="4.783912"><time>2026-05-07T19:12:39Z</time></trkpt>
<trkpt lat="50.517616" lon="4.783787"><time>2026-05-07T19:22:39Z</time></trkpt>
<trkpt lat="50.517728" lon="4.785255"><time>2026-05-07T19:32:39Z</time></trkpt>
</trkseg></trk>
<trk>
<name>nlbbv26</name>
<cmt>s</cmt>
<desc>Bovesse Sentier n°26 Rue du Ruisseau</desc>
<link href="https://chemins.be/bovesse/sentier/26"/><trkseg>
<trkpt lat="50.517728" lon="4.785255"><time>2026-05-07T19:32:39Z</time></trkpt>
<trkpt lat="50.517761" lon="4.786002"><time>2026-05-07T19:42:39Z</time></trkpt>
<trkpt lat="50.517973" lon="4.787034"><time>2026-05-07T19:52:39Z</time></trkpt>
<trkpt lat="50.517808" lon="4.788076"><time>2026-05-07T20:02:39Z</time></trkpt>
</trkseg></trk>
<trk>
<name>nlbbv26</name>
<cmt>v</cmt>
<desc>Bovesse Sentier n°26 Rue du Ruisseau</desc>
<link href="https://chemins.be/bovesse/sentier/26"/><trkseg>
<trkpt lat="50.517808" lon="4.788076"><time>2026-05-07T20:02:39Z</time></trkpt>
<trkpt lat="50.517606" lon="4.789258"><time>2026-05-07T20:12:39Z</time></trkpt>
</trkseg>
</trk>
<trk>
<name>nlbbv27</name>
<cmt>s</cmt>
<desc>Bovesse Sentier n°27 </desc>
<link href="https://chemins.be/bovesse/sentier/27"/><trkseg>
<trkpt lat="50.517761" lon="4.785946"><time>2026-05-07T19:02:39Z</time></trkpt>
<trkpt lat="50.518238" lon="4.785922"><time>2026-05-07T19:12:39Z</time></trkpt>
<trkpt lat="50.518856" lon="4.786477"><time>2026-05-07T19:22:39Z</time></trkpt>
<trkpt lat="50.523531" lon="4.783952"><time>2026-05-07T19:32:39Z</time></trkpt>
</trkseg>
</trk>
<trk>
<name>nlbbv28</name>
<cmt>s</cmt>
<desc>Bovesse Sentier n°28 </desc>
<link href="https://chemins.be/bovesse/sentier/28"/><trkseg>
<trkpt lat="50.516046" lon="4.788032"><time>2026-05-07T19:02:39Z</time></trkpt>
<trkpt lat="50.516828" lon="4.788081"><time>2026-05-07T19:12:39Z</time></trkpt>
<trkpt lat="50.517808" lon="4.788090"><time>2026-05-07T19:22:39Z</time></trkpt>
</trkseg></trk>
<trk>
<name>nlbbv28</name>
<cmt>b</cmt>
<desc>Bovesse Sentier n°28 </desc>
<link href="https://chemins.be/bovesse/sentier/28"/><trkseg>
<trkpt lat="50.517808" lon="4.788090"><time>2026-05-07T19:22:39Z</time></trkpt>
<trkpt lat="50.518293" lon="4.788207"><time>2026-05-07T19:32:39Z</time></trkpt>
</trkseg>
</trk>
<trk>
<name>nlbbv29</name>
<cmt>s</cmt>
<desc>Bovesse Sentier n°29 </desc>
<link href="https://chemins.be/bovesse/sentier/29"/><trkseg>
<trkpt lat="50.513635" lon="4.780862"><time>2026-05-07T19:02:39Z</time></trkpt>
<trkpt lat="50.513756" lon="4.779580"><time>2026-05-07T19:12:39Z</time></trkpt>
<trkpt lat="50.513824" lon="4.778283"><time>2026-05-07T19:22:39Z</time></trkpt>
<trkpt lat="50.513146" lon="4.774273"><time>2026-05-07T19:32:39Z</time></trkpt>
</trkseg>
</trk>
<trk>
<name>nlbbv3</name>
<cmt>r</cmt>
<desc>Bovesse Chemin n°3 Chemin de Temploux</desc>
<link href="https://chemins.be/bovesse/chemin/3"/><trkseg>
<trkpt lat="50.513211" lon="4.778814"><time>2026-05-07T19:02:39Z</time></trkpt>
<trkpt lat="50.511059" lon="4.777117"><time>2026-05-07T19:12:39Z</time></trkpt>
<trkpt lat="50.509202" lon="4.775987"><time>2026-05-07T19:22:39Z</time></trkpt>
</trkseg></trk>
<trk>
<name>nlbbv3</name>
<cmt>v</cmt>
<desc>Bovesse Chemin n°3 Chemin de Temploux</desc>
<link href="https://chemins.be/bovesse/chemin/3"/><trkseg>
<trkpt lat="50.509202" lon="4.775987"><time>2026-05-07T19:22:39Z</time></trkpt>
<trkpt lat="50.507317" lon="4.775041"><time>2026-05-07T19:32:39Z</time></trkpt>
<trkpt lat="50.506394" lon="4.774314"><time>2026-05-07T19:42:39Z</time></trkpt>
</trkseg>
</trk>
<trk>
<name>nlbbv30</name>
<cmt>d</cmt>
<desc>Bovesse Sentier n°30 </desc>
<link href="https://chemins.be/bovesse/sentier/30"/><trkseg>
<trkpt lat="50.520728" lon="4.780966"><time>2026-05-07T19:02:39Z</time></trkpt>
<trkpt lat="50.520258" lon="4.781766"><time>2026-05-07T19:12:39Z</time></trkpt>
</trkseg></trk>
<trk>
<name>nlbbv30</name>
<cmt>s</cmt>
<desc>Bovesse Sentier n°30 </desc>
<link href="https://chemins.be/bovesse/sentier/30"/><trkseg>
<trkpt lat="50.520258" lon="4.781766"><time>2026-05-07T19:12:39Z</time></trkpt>
<trkpt lat="50.519761" lon="4.782523"><time>2026-05-07T19:22:39Z</time></trkpt>
</trkseg>
</trk>
<trk>
<name>nlbbv31</name>
<cmt>s</cmt>
<desc>Bovesse Sentier n°31 </desc>
<link href="https://chemins.be/bovesse/sentier/31"/><trkseg>
<trkpt lat="50.516737" lon="4.775827"><time>2026-05-07T19:02:39Z</time></trkpt>
<trkpt lat="50.517797" lon="4.773453"><time>2026-05-07T19:12:39Z</time></trkpt>
<trkpt lat="50.517961" lon="4.772594"><time>2026-05-07T19:22:39Z</time></trkpt>
<trkpt lat="50.518053" lon="4.769479"><time>2026-05-07T19:32:39Z</time></trkpt>
<trkpt lat="50.519166" lon="4.767457"><time>2026-05-07T19:42:39Z</time></trkpt>
</trkseg>
</trk>
<trk>
<name>nlbbv32</name>
<cmt>q</cmt>
<desc>Bovesse Sentier n°32 </desc>
<link href="https://chemins.be/bovesse/sentier/32"/><trkseg>
<trkpt lat="50.516638" lon="4.783468"><time>2026-05-07T19:02:39Z</time></trkpt>
<trkpt lat="50.516381" lon="4.782338"><time>2026-05-07T19:12:39Z</time></trkpt>
</trkseg></trk>
<trk>
<name>nlbbv32</name>
<cmt>s</cmt>
<desc>Bovesse Sentier n°32 </desc>
<link href="https://chemins.be/bovesse/sentier/32"/><trkseg>
<trkpt lat="50.516381" lon="4.782338"><time>2026-05-07T19:12:39Z</time></trkpt>
<trkpt lat="50.516339" lon="4.781492"><time>2026-05-07T19:22:39Z</time></trkpt>
</trkseg>
</trk>
<trk>
<name>nlbbv33</name>
<cmt>s</cmt>
<desc>Bovesse Sentier n°33 </desc>
<link href="https://chemins.be/bovesse/sentier/33"/><trkseg>
<trkpt lat="50.515803" lon="4.788072"><time>2026-05-07T19:02:39Z</time></trkpt>
<trkpt lat="50.514935" lon="4.791857"><time>2026-05-07T19:12:39Z</time></trkpt>
</trkseg>
</trk>
<trk>
<name>nlbbv4</name>
<cmt>v</cmt>
<desc>Bovesse Chemin n°4 Chemin des Fermes / Rue de Temploux / Rue du Manoir</desc>
<link href="https://chemins.be/bovesse/chemin/4"/><trkseg>
<trkpt lat="50.502227" lon="4.767935"><time>2026-05-07T19:02:39Z</time></trkpt>
<trkpt lat="50.503663" lon="4.771006"><time>2026-05-07T19:12:39Z</time></trkpt>
<trkpt lat="50.504263" lon="4.771716"><time>2026-05-07T19:22:39Z</time></trkpt>
<trkpt lat="50.506824" lon="4.774769"><time>2026-05-07T19:32:39Z</time></trkpt>
</trkseg></trk>
<trk>
<name>nlbbv4</name>
<cmt>s</cmt>
<desc>Bovesse Chemin n°4 Chemin des Fermes / Rue de Temploux / Rue du Manoir</desc>
<link href="https://chemins.be/bovesse/chemin/4"/><trkseg>
<trkpt lat="50.506824" lon="4.774769"><time>2026-05-07T19:32:39Z</time></trkpt>
<trkpt lat="50.508184" lon="4.776557"><time>2026-05-07T19:42:39Z</time></trkpt>
<trkpt lat="50.509358" lon="4.777610"><time>2026-05-07T19:52:39Z</time></trkpt>
</trkseg></trk>
<trk>
<name>nlbbv4</name>
<cmt>v</cmt>
<desc>Bovesse Chemin n°4 Chemin des Fermes / Rue de Temploux / Rue du Manoir</desc>
<link href="https://chemins.be/bovesse/chemin/4"/><trkseg>
<trkpt lat="50.509358" lon="4.777610"><time>2026-05-07T19:52:39Z</time></trkpt>
<trkpt lat="50.510443" lon="4.778353"><time>2026-05-07T20:02:39Z</time></trkpt>
</trkseg></trk>
<trk>
<name>nlbbv4</name>
<cmt>r</cmt>
<desc>Bovesse Chemin n°4 Chemin des Fermes / Rue de Temploux / Rue du Manoir</desc>
<link href="https://chemins.be/bovesse/chemin/4"/><trkseg>
<trkpt lat="50.510443" lon="4.778353"><time>2026-05-07T20:02:39Z</time></trkpt>
<trkpt lat="50.511604" lon="4.780689"><time>2026-05-07T20:12:39Z</time></trkpt>
<trkpt lat="50.512451" lon="4.781394"><time>2026-05-07T20:22:39Z</time></trkpt>
</trkseg></trk>
<trk>
<name>nlbbv4</name>
<cmt>s</cmt>
<desc>Bovesse Chemin n°4 Chemin des Fermes / Rue de Temploux / Rue du Manoir</desc>
<link href="https://chemins.be/bovesse/chemin/4"/><trkseg>
<trkpt lat="50.512451" lon="4.781394"><time>2026-05-07T20:22:39Z</time></trkpt>
<trkpt lat="50.512593" lon="4.781563"><time>2026-05-07T20:32:39Z</time></trkpt>
</trkseg></trk>
<trk>
<name>nlbbv4</name>
<cmt>v</cmt>
<desc>Bovesse Chemin n°4 Chemin des Fermes / Rue de Temploux / Rue du Manoir</desc>
<link href="https://chemins.be/bovesse/chemin/4"/><trkseg>
<trkpt lat="50.512593" lon="4.781563"><time>2026-05-07T20:32:39Z</time></trkpt>
<trkpt lat="50.512720" lon="4.781710"><time>2026-05-07T20:42:39Z</time></trkpt>
</trkseg>
</trk>
<trk>
<name>nlbbv5</name>
<cmt>r</cmt>
<desc>Bovesse Chemin n°5 Chemin de Marette / Rue de Marette / ?</desc>
<link href="https://chemins.be/bovesse/chemin/5"/><trkseg>
<trkpt lat="50.509291" lon="4.757858"><time>2026-05-07T19:02:39Z</time></trkpt>
<trkpt lat="50.508575" lon="4.762138"><time>2026-05-07T19:12:39Z</time></trkpt>
<trkpt lat="50.508366" lon="4.762799"><time>2026-05-07T19:22:39Z</time></trkpt>
<trkpt lat="50.508393" lon="4.765618"><time>2026-05-07T19:32:39Z</time></trkpt>
</trkseg></trk>
<trk>
<name>nlbbv5</name>
<cmt>s</cmt>
<desc>Bovesse Chemin n°5 Chemin de Marette / Rue de Marette / ?</desc>
<link href="https://chemins.be/bovesse/chemin/5"/><trkseg>
<trkpt lat="50.508393" lon="4.765618"><time>2026-05-07T19:32:39Z</time></trkpt>
<trkpt lat="50.508457" lon="4.767973"><time>2026-05-07T19:42:39Z</time></trkpt>
<trkpt lat="50.509249" lon="4.772816"><time>2026-05-07T19:52:39Z</time></trkpt>
<trkpt lat="50.509842" lon="4.775584"><time>2026-05-07T20:02:39Z</time></trkpt>
<trkpt lat="50.510444" lon="4.778254"><time>2026-05-07T20:12:39Z</time></trkpt>
</trkseg>
</trk>
<trk>
<name>nlbbv6</name>
<cmt>v</cmt>
<desc>Bovesse Chemin n°6 Chemin n°9 de Isnes</desc>
<link href="https://chemins.be/bovesse/chemin/6"/><trkseg>
<trkpt lat="50.512177" lon="4.755132"><time>2026-05-07T19:02:39Z</time></trkpt>
<trkpt lat="50.513149" lon="4.757715"><time>2026-05-07T19:12:39Z</time></trkpt>
</trkseg>
</trk>
<trk>
<name>nlbbv7</name>
<cmt>r</cmt>
<desc>Bovesse Chemin n°7 Chemin d'Emines / Rue des Fermes / Rue de la Ronce / Rue de la Distillerie</desc>
<link href="https://chemins.be/bovesse/chemin/7"/><trkseg>
<trkpt lat="50.512742" lon="4.781770"><time>2026-05-07T19:02:39Z</time></trkpt>
<trkpt lat="50.512978" lon="4.783732"><time>2026-05-07T19:12:39Z</time></trkpt>
<trkpt lat="50.514119" lon="4.786323"><time>2026-05-07T19:22:39Z</time></trkpt>
<trkpt lat="50.514764" lon="4.787062"><time>2026-05-07T19:32:39Z</time></trkpt>
<trkpt lat="50.515228" lon="4.787855"><time>2026-05-07T19:42:39Z</time></trkpt>
<trkpt lat="50.516072" lon="4.788117"><time>2026-05-07T19:52:39Z</time></trkpt>
<trkpt lat="50.516357" lon="4.789078"><time>2026-05-07T20:02:39Z</time></trkpt>
<trkpt lat="50.516796" lon="4.789322"><time>2026-05-07T20:12:39Z</time></trkpt>
<trkpt lat="50.517713" lon="4.789330"><time>2026-05-07T20:22:39Z</time></trkpt>
<trkpt lat="50.517500" lon="4.791274"><time>2026-05-07T20:32:39Z</time></trkpt>
</trkseg>
</trk>
<trk>
<name>nlbbv8</name>
<cmt>r</cmt>
<desc>Bovesse Chemin n°8 Chemin de Saint-Denis / Rue du Ruisseau / Rue de la Distillerie / Rue du Moulin / ? / Rue de Cannevaux</desc>
<link href="https://chemins.be/bovesse/chemin/8"/><trkseg>
<trkpt lat="50.514174" lon="4.786168"><time>2026-05-07T19:02:39Z</time></trkpt>
<trkpt lat="50.515935" lon="4.783815"><time>2026-05-07T19:12:39Z</time></trkpt>
<trkpt lat="50.517331" lon="4.783094"><time>2026-05-07T19:22:39Z</time></trkpt>
<trkpt lat="50.518341" lon="4.782257"><time>2026-05-07T19:32:39Z</time></trkpt>
<trkpt lat="50.519304" lon="4.781969"><time>2026-05-07T19:42:39Z</time></trkpt>
<trkpt lat="50.519165" lon="4.780755"><time>2026-05-07T19:52:39Z</time></trkpt>
<trkpt lat="50.522760" lon="4.780998"><time>2026-05-07T20:02:39Z</time></trkpt>
</trkseg></trk>
<trk>
<name>nlbbv8</name>
<cmt>v</cmt>
<desc>Bovesse Chemin n°8 Chemin de Saint-Denis / Rue du Ruisseau / Rue de la Distillerie / Rue du Moulin / ? / Rue de Cannevaux</desc>
<link href="https://chemins.be/bovesse/chemin/8"/><trkseg>
<trkpt lat="50.522760" lon="4.780998"><time>2026-05-07T20:02:39Z</time></trkpt>
<trkpt lat="50.523452" lon="4.783585"><time>2026-05-07T20:12:39Z</time></trkpt>
</trkseg></trk>
<trk>
<name>nlbbv8</name>
<cmt>r</cmt>
<desc>Bovesse Chemin n°8 Chemin de Saint-Denis / Rue du Ruisseau / Rue de la Distillerie / Rue du Moulin / ? / Rue de Cannevaux</desc>
<link href="https://chemins.be/bovesse/chemin/8"/><trkseg>
<trkpt lat="50.523452" lon="4.783585"><time>2026-05-07T20:12:39Z</time></trkpt>
<trkpt lat="50.523718" lon="4.784447"><time>2026-05-07T20:22:39Z</time></trkpt>
<trkpt lat="50.524548" lon="4.788671"><time>2026-05-07T20:32:39Z</time></trkpt>
</trkseg>
</trk>
<trk>
<name>nlbbv9</name>
<cmt>r</cmt>
<desc>Bovesse Chemin n°9 Rue du Moulin</desc>
<link href="https://chemins.be/bovesse/chemin/9"/><trkseg>
<trkpt lat="50.522805" lon="4.780970"><time>2026-05-07T19:02:39Z</time></trkpt>
<trkpt lat="50.524045" lon="4.781235"><time>2026-05-07T19:12:39Z</time></trkpt>
</trkseg>
</trk>
<trk>
<name>nlbbvi1</name>
<cmt>v</cmt>
<desc>Bovesse Sentier n°i1 </desc>
<link href="https://chemins.be/bovesse/sentier/i1"/><trkseg>
<trkpt lat="50.519518" lon="4.785073"><time>2026-05-07T19:02:39Z</time></trkpt>
<trkpt lat="50.519456" lon="4.784776"><time>2026-05-07T19:12:39Z</time></trkpt>
<trkpt lat="50.519529" lon="4.784509"><time>2026-05-07T19:22:39Z</time></trkpt>
<trkpt lat="50.519512" lon="4.784156"><time>2026-05-07T19:32:39Z</time></trkpt>
<trkpt lat="50.519260" lon="4.784112"><time>2026-05-07T19:42:39Z</time></trkpt>
</trkseg>
</trk>
<trk>
<name>nlbbvi2</name>
<cmt>v</cmt>
<desc>Bovesse Sentier n°i2 Sentier n°i2 de Bovesse</desc>
<link href="https://chemins.be/bovesse/sentier/i2"/><trkseg>
<trkpt lat="50.514996" lon="4.777447"><time>2026-05-07T19:02:39Z</time></trkpt>
<trkpt lat="50.515556" lon="4.776677"><time>2026-05-07T19:12:39Z</time></trkpt>
<trkpt lat="50.516189" lon="4.775625"><time>2026-05-07T19:22:39Z</time></trkpt>
<trkpt lat="50.516406" lon="4.775105"><time>2026-05-07T19:32:39Z</time></trkpt>
</trkseg>
</trk>
<trk>
<name>nlbbvi4</name>
<cmt>v</cmt>
<desc>Bovesse Sentier n°i4 </desc>
<link href="https://chemins.be/bovesse/sentier/i4"/><trkseg>
<trkpt lat="50.501811" lon="4.773697"><time>2026-05-07T19:02:39Z</time></trkpt>
<trkpt lat="50.501345" lon="4.770732"><time>2026-05-07T19:12:39Z</time></trkpt>
<trkpt lat="50.501292" lon="4.767814"><time>2026-05-07T19:22:39Z</time></trkpt>
</trkseg>
</trk>
<trk>
<name>nlbbvL161</name>
<cmt>t</cmt>
<desc>Bovesse Chemin n°L161 </desc>
<link href="https://chemins.be/bovesse/chemin/L161"/><trkseg>
<trkpt lat="50.509136" lon="4.786899"><time>2026-05-07T19:02:39Z</time></trkpt>
<trkpt lat="50.512537" lon="4.781485"><time>2026-05-07T19:12:39Z</time></trkpt>
<trkpt lat="50.520301" lon="4.769455"><time>2026-05-07T19:22:39Z</time></trkpt>
</trkseg>
</trk>
<trk>
<name>nlbbvr25</name>
<cmt>v</cmt>
<desc>Bovesse Chemin de remembrement n°r25 </desc>
<link href="https://chemins.be/bovesse/chemin/r25"/><trkseg>
<trkpt lat="50.508341" lon="4.762277"><time>2026-05-07T19:02:39Z</time></trkpt>
<trkpt lat="50.508261" lon="4.762220"><time>2026-05-07T19:12:39Z</time></trkpt>
<trkpt lat="50.507522" lon="4.762495"><time>2026-05-07T19:22:39Z</time></trkpt>
</trkseg>
</trk>
</gpx>